Wind_Speed
21 21 21 19 18 18 18 18 18 18 18 18 17 17 16 16 16 16 17 17 17 17 17 17 17 18 18 17 17 17 17 17 17 17 17 17 16 16 15 13 12 10 8 7 8 8 8 9 10 10 10 8 7 7 7 7 8 8 8 8 8 7 6 6 5 5 5 5 5 4 6 7 7 6 5 7 8 8 8 7 6 5 4 5 5
21 21 21 18 18 18 18 18 18 18 18 17 17 16 16 16 16 16 17 17 17 17 17 16 16 17 17 17 17 17 17 17 17 17 17 17 17 16 15 14 12 10 8 8 8 9 9 10 10 11 10 8 7 7 7 8 8 8 8 8 7 7 6 5 4 4 4 4 4 4 4 4 5 5 4 6 7 7 7 6 5 4 4 4 4
20 20 19 18 18 18 18 17 18 18 17 17 17 16 16 16 16 16 17 17 16 16 16 16 16 16 16 16 17 17 17 17 17 17 17 17 17 16 16 14 11 9 8 8 8 9 10 10 11 11 10 8 7 7 7 8 8 9 8 8 7 6 5 5 4 3 3 3 3 3 3 3 4 4 5 6 7 6 5 5 4 3 4 4 4
18 18 18 17 17 17 17 17 17 17 17 17 17 17 16 16 16 17 17 16 16 16 16 15 16 16 16 16 16 17 17 17 17 18 17 17 17 17 16 14 11 9 8 7 8 9 10 11 11 11 10 9 7 7 7 8 8 8 8 7 7 6 5 5 4 2 2 2 3 3 4 4 4 4 5 6 5 5 4 3 3 3 3 4 4
17 16 16 16 16 16 17 16 16 16 16 17 17 17 17 17 17 17 17 16 16 15 15 16 16 15 15 15 16 16 16 17 17 18 18 18 18 18 16 14 11 9 8 7 8 9 10 11 11 11 11 8 7 7 7 8 8 8 8 7 6 6 5 5 3 2 2 2 3 3 4 5 4 5 5 5 4 3 2 2 2 2 3 3 3
15 15 15 15 16 16 16 16 16 16 16 17 17 17 17 17 17 17 16 16 15 15 15 15 15 14 14 15 15 16 16 17 18 18 19 19 18 18 17 13 10 9 8 8 8 9 10 11 11 12 11 8 7 7 8 8 8 8 7 7 6 6 5 5 4 3 2 2 3 3 4 5 5 5 5 4 3 3 2 2 1 1 2 2 2
14 14 14 14 15 15 15 16 16 16 17 17 17 17 17 17 17 17 16 16 15 15 15 15 15 14 14 15 16 16 16 17 18 19 20 20 19 19 18 14 9 8 9 9 9 10 10 11 11 11 11 8 7 8 8 8 8 7 7 7 6 6 5 5 5 4 2 2 3 3 4 4 5 4 4 4 3 2 2 1 1 1 1 1 1
13 13 13 13 14 14 15 15 16 17 17 18 18 18 18 17 17 17 16 15 14 14 14 15 14 15 15 15 16 17 16 17 18 19 20 20 21 20 19 15 9 8 9 10 10 10 10 11 11 11 10 8 7 7 8 7 7 8 8 7 7 6 5 5 4 3 2 2 3 3 4 4 4 4 3 3 3 2 1 1 0 0 1 1 1
11 12 12 12 13 13 14 15 16 17 18 18 19 19 19 18 18 17 16 15 14 14 14 14 14 15 16 16 17 17 17 17 18 20 20 21 21 21 20 16 10 7 9 11 10 10 10 10 10 11 10 8 6 6 6 6 7 8 8 8 7 6 6 5 4 3 3 3 3 3 3 4 3 3 3 3 2 2 1 1 1 2 2 2 2
10 10 11 11 12 13 14 15 16 17 18 19 19 20 20 19 18 17 16 14 14 14 14 14 14 15 16 17 17 17 17 18 19 20 21 21 22 21 20 16 11 7 8 10 11 10 10 10 10 10 10 8 6 5 5 5 6 8 8 8 7 7 6 5 5 5 4 4 3 3 3 3 2 2 2 2 2 2 2 3 3 3 3 3 4
10 10 11 11 12 13 14 15 16 17 18 19 20 20 20 20 19 17 15 14 14 14 14 14 15 16 16 17 17 17 17 18 19 20 21 22 22 22 20 16 11 7 7 10 11 10 10 10 10 10 9 8 7 5 5 5 6 7 8 8 8 7 7 6 5 5 4 4 4 3 3 2 2 3 3 3 3 3 4 4 4 4 5 5 5
11 11 11 12 13 14 15 16 17 18 18 19 20 20 21 20 19 17 15 15 15 15 14 15 15 16 17 17 17 17 18 18 19 21 22 22 22 22 20 16 11 7 7 9 10 10 10 9 10 9 9 8 7 5 5 5 5 6 7 8 8 8 7 6 5 4 4 3 3 3 3 3 4 4 4 4 4 5 5 5 5 6 6 6 6
11 11 12 13 14 14 16 17 17 18 18 18 19 19 20 19 18 17 15 15 15 15 15 15 16 17 18 18 18 17 18 18 19 21 22 23 22 22 20 16 12 7 6 8 9 10 10 9 10 9 9 8 7 6 5 5 5 5 7 7 8 8 7 6 5 4 3 2 2 3 3 4 4 4 4 5 5 5 6 6 6 7 7 7 8
12 12 12 13 14 15 16 17 18 19 18 18 18 18 18 18 17 16 15 15 15 15 16 16 17 17 18 18 18 18 18 19 20 22 23 23 23 22 20 17 12 8 6 7 8 10 10 9 10 10 9 8 8 7 6 5 5 5 6 7 7 7 7 7 6 4 3 2 2 2 3 3 4 4 4 5 5 6 6 6 7 7 8 8 8
12 13 13 14 15 16 17 18 19 19 19 18 18 17 17 17 16 15 15 15 15 16 16 17 17 18 18 18 18 18 18 20 22 23 23 23 23 22 20 17 14 9 5 6 8 9 10 10 10 10 10 8 8 7 7 6 6 6 6 6 7 7 7 7 6 5 4 3 3 3 3 3 4 4 5 5 5 6 6 7 7 8 8 9 9
14 14 15 15 16 17 18 19 19 19 19 18 17 17 16 16 15 15 15 15 16 17 17 17 17 18 18 19 19 18 19 21 23 23 23 23 22 21 19 16 14 11 6 5 7 8 9 10 10 10 9 8 8 8 8 8 7 7 7 7 8 7 7 7 7 6 6 5 5 5 4 5 5 5 5 6 6 6 7 7 8 8 8 9 9
15 16 15 15 15 17 18 19 19 19 18 17 16 15 15 15 15 15 15 15 16 17 17 17 17 17 18 18 19 19 20 22 23 24 23 23 22 20 18 15 13 12 8 5 6 7 8 9 10 10 9 8 8 8 8 9 8 8 8 8 9 9 8 7 7 7 7 7 7 7 6 6 7 7 7 7 7 7 8 8 8 9 9 9 10
15 15 15 16 15 16 18 19 19 18 17 15 14 14 14 15 15 15 15 15 16 16 17 17 17 17 18 18 19 20 21 23 24 24 23 22 21 19 17 14 12 12 11 7 5 6 7 8 9 10 9 8 7 8 9 9 9 9 9 9 10 9 9 8 7 7 7 7 7 8 8 8 8 8 8 8 8 8 9 9 9 10 10 10 10
16 15 14 15 16 17 18 18 18 17 15 14 13 13 14 15 15 15 15 16 16 17 17 17 18 18 18 19 20 22 23 24 24 24 23 22 19 17 15 13 11 11 12 10 7 6 7 8 9 9 9 8 7 8 9 10 9 8 8 10 11 10 9 8 7 7 7 7 7 8 8 9 9 10 10 10 10 10 10 10 10 10 11 11 11
17 16 14 16 16 17 18 18 17 16 14 13 13 13 14 15 15 15 15 16 16 16 17 18 18 19 19 20 21 23 24 25 24 23 23 21 18 16 14 12 11 11 12 11 10 8 7 9 11 11 9 9 8 9 11 10 9 8 9 11 11 11 10 9 8 8 8 7 8 8 8 9 10 10 11 11 11 11 11 11 11 11 11 12 12
16 17 17 17 17 18 19 18 16 14 13 13 13 14 15 15 15 15 15 15 15 16 17 18 19 19 19 21 22 23 24 25 24 23 22 20 18 15 13 12 12 12 12 12 11 10 9 9 11 12 10 10 9 10 12 11 10 9 10 11 10 10 10 10 10 9 9 8 8 8 8 9 10 10 11 11 11 11 11 11 12 12 12 12 12
16 17 18 17 18 19 20 18 16 15 14 13 14 14 15 16 16 15 15 16 16 17 17 18 19 20 20 22 23 23 24 25 25 23 22 20 18 16 13 12 12 13 13 12 12 12 11 10 11 13 12 11 10 11 12 12 10 10 11 11 10 10 10 11 11 10 11 10 10 9 9 10 10 11 11 11 11 11 11 11 12 12 12 12 12
17 18 18 17 18 19 19 19 19 18 16 14 15 15 16 16 16 16 16 17 18 18 18 19 20 21 22 22 24 23 23 23 24 23 22 20 18 17 14 12 13 13 13 13 13 13 13 12 12 13 14 13 12 11 12 12 11 10 11 13 11 11 12 12 11 11 11 11 10 10 11 11 10 11 11 12 12 11 11 11 11 11 11 12 12
18 18 18 17 18 18 19 19 20 19 17 16 15 16 17 17 17 17 17 18 19 20 19 20 21 22 23 23 24 23 22 22 22 22 22 21 19 17 15 13 13 13 14 14 14 14 14 14 14 15 15 15 14 12 12 12 12 11 12 13 12 12 13 12 11 11 11 11 11 11 12 11 11 11 11 12 12 12 12 12 11 11 11 11 11
19 18 18 17 18 18 19 19 20 20 19 17 16 17 18 19 18 18 19 20 21 21 21 22 23 24 24 23 24 23 22 22 21 20 22 22 20 18 16 14 13 14 14 15 15 15 15 15 16 17 17 17 17 15 13 13 13 14 13 14 14 14 13 12 12 12 12 12 11 12 12 12 11 11 11 12 12 12 12 12 12 12 11 10 10
19 18 17 17 18 18 19 19 20 21 20 19 17 18 19 20 20 20 21 21 22 23 22 23 24 26 25 24 24 23 23 22 21 21 22 23 21 19 17 14 14 15 16 16 17 17 16 17 18 19 19 19 18 17 16 15 15 16 15 15 15 14 13 13 12 12 13 12 12 12 12 12 11 11 11 11 12 12 12 12 12 12 11 11 11
18 18 17 17 18 19 19 19 20 21 21 20 19 19 20 21 22 22 22 22 23 24 24 25 26 27 26 24 24 23 23 21 21 21 22 22 21 20 18 16 15 16 17 17 18 19 19 19 20 21 21 21 20 19 19 18 17 17 17 16 15 13 13 14 14 13 13 13 13 13 13 13 12 11 11 11 12 13 12 12 12 12 12 11 11
18 18 18 18 18 19 19 19 20 21 22 21 20 20 21 22 22 22 22 23 23 23 24 25 25 25 25 23 23 23 22 21 20 20 21 22 22 21 20 18 17 17 18 18 19 20 21 22 23 22 22 21 21 21 20 19 19 19 18 17 15 14 14 14 15 15 13 13 13 14 14 14 13 12 12 12 13 13 13 13 13 12 12 11 11
18 18 18 18 18 19 19 20 20 21 22 21 20 20 21 21 20 21 22 22 21 22 24 24 24 24 23 22 22 21 21 20 19 20 21 21 21 21 21 20 20 19 19 19 20 21 23 24 25 24 22 22 22 21 20 20 20 21 20 18 16 17 17 16 17 16 14 13 13 14 14 14 13 13 14 14 14 14 14 13 13 13 12 12 11
17 18 18 19 19 19 19 19 19 20 21 22 20 19 20 21 20 20 20 20 21 23 24 24 23 22 21 21 21 21 20 20 19 20 21 21 21 21 21 21 20 20 20 20 21 22 24 25 26 26 24 23 22 21 20 20 20 22 21 18 18 19 18 17 18 18 16 14 13 13 13 14 13 14 15 16 15 14 14 14 13 13 12 12 11
17 18 19 19 20 19 19 19 19 20 21 22 21 20 20 20 20 20 21 22 24 25 25 24 23 21 21 22 21 20 20 20 19 20 21 21 21 21 21 21 21 21 21 21 22 23 24 26 27 27 25 23 22 21 20 20 22 23 22 19 19 19 18 17 19 19 17 15 13 13 13 13 14 15 15 15 15 14 14 14 14 13 13 12 11
18 18 19 20 20 20 19 19 19 20 22 23 22 20 19 19 20 22 23 24 25 25 24 23 22 22 22 22 21 20 20 20 20 20 21 21 21 21 21 21 20 21 21 21 22 23 24 25 26 27 26 23 22 22 20 21 23 23 21 19 19 19 19 19 20 20 18 16 15 14 14 14 14 15 15 14 14 14 13 14 14 14 13 12 11
18 19 20 20 20 19 18 19 19 20 22 23 22 21 19 19 20 21 23 24 24 24 23 23 23 23 23 23 22 20 20 19 20 20 20 20 21 20 20 20 21 21 21 21 21 22 23 24 26 27 26 24 23 23 21 22 23 22 20 19 19 20 19 20 20 20 19 17 16 15 15 16 15 14 14 14 14 14 14 14 14 14 13 12 11
19 20 21 20 19 18 17 18 19 21 23 23 23 22 20 20 21 21 22 23 23 23 23 23 23 23 23 23 21 20 20 19 19 19 19 20 20 20 20 20 21 22 21 20 21 22 23 24 25 27 26 24 24 24 23 23 23 21 20 19 19 19 19 19 20 19 18 17 16 16 16 17 16 15 14 14 13 14 14 14 14 14 13 12 11
20 20 20 20 19 18 17 18 19 22 23 23 22 21 20 21 21 22 23 22 22 22 22 22 22 22 22 21 20 20 20 19 18 18 18 19 19 19 20 20 21 22 22 21 22 22 23 24 25 25 25 24 24 25 24 24 23 22 20 19 19 18 19 19 19 19 19 18 17 17 18 18 16 14 14 14 13 14 14 14 14 13 12 12 12
20 19 19 19 18 18 18 18 19 21 22 20 18 18 19 21 22 23 23 22 21 21 20 21 21 21 20 19 19 19 19 18 17 18 18 18 18 18 20 21 21 22 22 22 22 23 24 24 24 25 24 24 24 24 23 23 23 22 20 20 18 18 18 19 19 19 19 18 18 18 18 17 16 15 14 13 13 14 15 14 13 12 12 12 12
20 18 18 17 17 17 17 17 19 20 20 19 17 17 19 20 22 23 21 20 21 20 19 19 20 20 19 18 18 18 19 18 18 18 17 17 19 19 21 22 21 22 22 22 22 23 24 24 24 25 24 23 23 22 22 23 22 21 20 20 19 18 19 19 19 19 18 18 19 19 17 16 16 16 15 14 14 15 15 14 12 11 12 12 12
20 20 18 18 17 16 15 16 17 18 19 18 18 18 18 19 21 22 21 22 22 21 20 18 18 19 18 17 17 17 18 19 18 17 17 17 19 20 21 22 22 22 22 22 22 22 24 24 25 25 24 23 22 22 23 23 21 20 21 21 21 19 20 19 18 18 18 19 19 18 17 16 17 17 16 16 15 15 15 14 12 11 12 12 11
22 21 20 18 17 15 14 16 17 17 17 18 19 20 20 19 20 22 24 25 24 23 20 17 17 18 18 16 16 16 17 19 19 18 18 18 19 19 20 21 22 23 23 23 23 23 24 25 25 25 24 23 23 23 24 22 20 19 21 22 21 21 21 19 18 18 18 19 18 17 17 17 17 17 17 16 15 14 14 13 12 11 11 11 11
22 21 19 18 16 15 15 16 17 17 17 18 20 21 22 23 24 25 25 26 26 25 21 18 18 20 20 17 17 18 18 18 18 18 19 20 19 19 20 21 21 22 23 23 23 23 23 24 26 26 25 24 23 24 25 24 22 21 22 23 22 22 21 19 19 19 19 18 18 18 18 18 18 17 17 16 15 14 14 13 12 11 10 10 10
22 21 20 18 17 16 16 16 17 18 18 19 20 21 22 23 25 25 26 26 26 26 24 21 21 22 23 20 18 20 20 20 20 20 21 20 20 20 20 21 21 21 22 23 22 21 21 23 24 26 27 26 24 25 26 25 23 23 23 23 23 23 21 20 21 20 19 18 18 19 19 19 18 17 16 15 15 14 13 12 11 11 11 11 10
21 19 18 17 16 16 16 16 17 18 19 20 20 21 22 23 23 24 26 26 27 27 26 26 25 26 26 23 21 21 22 22 22 23 23 22 20 20 22 22 21 21 22 22 21 20 19 20 24 26 27 27 25 26 26 25 24 24 24 23 23 23 22 22 22 21 19 18 18 19 19 19 19 17 15 15 14 13 12 11 11 12 12 12 12
21 19 17 16 15 15 16 16 17 17 18 20 21 22 23 23 23 24 26 27 27 27 27 28 29 29 29 28 26 24 23 23 25 26 27 25 23 22 23 22 21 22 22 22 21 19 18 19 24 27 28 28 26 25 25 24 23 23 23 22 22 22 22 22 22 21 20 19 18 18 18 18 17 16 14 14 13 11 11 11 12 13 13 13 13
20 19 18 16 15 15 15 15 15 16 18 19 20 22 23 24 24 25 25 26 27 27 27 28 29 30 31 31 31 29 27 26 27 28 29 28 26 24 23 23 22 22 22 22 21 20 18 18 20 22 27 28 25 23 23 23 22 22 22 23 23 22 21 22 23 22 20 19 18 17 16 15 15 14 13 12 11 10 11 12 13 14 14 14 13
20 19 19 17 15 14 14 14 15 16 17 19 20 22 23 24 24 25 25 26 28 28 28 28 29 31 32 32 33 33 31 29 28 28 29 29 28 26 24 24 24 23 23 22 21 20 18 17 18 17 20 25 25 22 22 22 22 23 24 25 24 22 21 22 24 23 21 20 18 16 16 15 15 14 12 12 11 11 12 12 13 13 14 14 13
20 20 20 18 17 15 14 15 15 16 17 18 20 22 23 24 24 25 26 27 28 29 29 30 31 32 33 34 34 34 33 31 30 30 30 30 30 29 26 25 25 25 24 23 22 20 18 18 19 17 16 19 22 22 23 24 24 26 28 28 24 23 23 22 23 24 23 22 19 17 16 16 16 15 14 13 12 12 12 12 12 13 13 13 13
20 19 19 18 17 16 15 15 16 16 16 18 19 21 22 23 24 24 26 27 27 28 29 31 33 34 36 36 36 35 33 32 32 31 32 32 31 30 29 27 25 24 23 24 23 21 19 19 20 18 17 18 22 25 26 26 25 26 29 29 24 23 24 23 23 23 23 21 19 18 16 15 16 16 15 14 13 13 13 12 12 12 12 12 12
19 18 17 16 16 16 16 16 16 17 18 18 19 20 20 21 23 24 26 27 28 28 29 31 33 35 37 38 39 37 34 33 33 31 32 32 31 31 31 29 27 24 23 24 23 22 21 20 20 19 18 19 24 29 28 26 25 25 27 28 25 23 24 24 22 21 20 20 19 17 15 15 16 16 15 14 13 14 14 13 12 12 12 12 12
20 19 18 16 15 16 17 17 18 19 20 20 21 21 21 21 22 24 26 27 29 30 30 31 34 36 37 38 39 38 35 34 34 33 33 33 33 33 31 29 28 25 24 24 23 22 21 21 20 20 18 16 19 25 27 26 25 24 24 25 23 20 22 22 20 18 18 18 18 16 15 15 15 15 15 13 13 13 14 13 13 13 13 13 13
22 21 20 18 17 17 18 18 19 20 22 22 23 23 23 23 24 25 26 27 29 30 32 33 34 35 36 36 36 37 36 35 35 35 35 35 35 33 30 29 27 25 24 24 23 22 21 21 21 20 19 16 16 19 21 20 20 19 18 19 19 18 19 18 17 18 17 17 17 15 15 15 16 15 14 14 14 13 13 14 14 14 14 14 14
24 23 22 21 19 19 19 20 20 20 22 22 23 24 25 26 26 26 27 28 29 30 32 33 33 34 36 35 34 34 35 36 35 35 36 36 35 33 31 29 26 24 23 23 23 22 22 22 22 20 18 17 16 17 18 16 15 15 15 16 17 17 18 17 18 19 18 17 17 16 15 16 16 16 15 15 15 14 14 15 15 15 14 15 15
Wind_Direction
302 306 308 311 314 316 316 316 317 318 317 317 319 321 323 325 328 329 328 329 330 329 328 329 331 335 342 345 345 345 347 348 349 352 354 353 353 353 353 351 349 351 349 344 340 341 341 341 343 349 354 358 0 0 358 1 3 1 357 356 358 0 8 12 21 31 37 47 55 72 85 87 94 99 95 92 91 89 88 88 88 91 94 92 92
303 303 305 310 313 314 315 317 317 317 316 316 318 319 321 323 325 325 324 325 326 325 324 326 329 335 341 342 342 344 345 345 346 348 351 352 352 353 353 352 352 353 350 345 343 345 344 345 348 353 358 359 360 359 359 2 360 356 353 352 352 356 7 17 30 41 52 68 76 82 85 93 105 111 104 93 89 86 86 85 85 86 85 88 90
301 301 304 309 311 313 315 317 317 316 315 316 317 318 320 320 322 322 321 321 321 321 321 324 329 335 339 339 340 341 342 342 343 344 347 350 351 354 356 355 355 355 350 346 345 347 347 350 353 354 357 359 2 4 3 1 357 353 350 348 346 350 5 20 32 40 52 72 90 96 99 106 107 106 98 87 83 82 82 82 85 84 84 89 91
298 299 303 307 310 313 316 317 316 316 315 316 317 318 319 319 319 318 317 317 318 318 320 323 328 333 336 336 338 338 338 340 341 341 343 348 352 355 358 357 355 355 350 346 346 348 351 354 356 354 356 359 5 7 5 2 357 352 347 345 342 349 3 19 33 44 60 92 115 120 114 107 101 91 81 78 77 74 75 81 84 86 94 98 95
295 298 302 306 310 313 316 317 317 317 317 318 319 319 318 316 315 314 313 314 315 317 319 321 325 331 333 333 334 334 336 338 338 339 340 345 352 355 360 358 355 355 349 344 344 350 354 356 356 355 356 358 5 7 4 2 359 354 348 347 347 354 5 16 28 50 82 102 103 100 98 96 91 77 69 68 65 64 65 71 80 92 100 101 100
295 298 302 308 312 314 315 317 318 319 320 320 319 316 314 312 311 310 310 310 313 315 317 318 322 329 330 329 330 331 334 337 335 337 338 343 351 355 359 359 354 352 347 342 344 350 356 357 357 356 355 356 1 5 4 5 3 359 354 351 354 1 5 10 14 25 45 69 82 82 82 83 75 65 57 50 49 50 57 67 78 90 99 100 110
297 300 306 310 313 314 315 317 320 321 322 320 317 312 309 307 307 307 306 308 311 313 313 314 320 326 327 326 327 329 333 335 333 334 337 342 350 354 357 359 353 346 344 341 343 349 356 359 357 356 356 355 358 4 8 11 9 5 1 356 357 4 7 9 12 21 39 65 79 76 73 70 62 53 44 38 35 32 38 58 72 81 100 125 154
299 303 307 310 313 315 317 318 320 320 319 317 313 309 306 305 304 304 304 307 308 309 309 310 318 323 323 323 324 327 330 332 331 332 335 340 348 351 353 356 350 340 341 341 341 346 355 359 357 356 357 356 356 2 11 16 14 8 4 359 359 3 9 12 11 13 33 50 59 62 58 57 51 42 37 32 23 13 8 5 357 208 230 240 235
300 303 307 311 316 317 319 319 319 318 316 313 309 305 303 301 300 301 303 305 305 304 305 308 315 319 319 320 321 324 326 328 328 330 334 338 345 348 349 351 346 334 339 340 339 343 350 356 357 357 359 360 355 359 11 17 12 6 2 359 358 1 7 9 7 5 13 28 37 43 44 45 42 36 31 18 1 338 311 295 277 263 258 261 262
300 304 309 314 319 319 319 319 318 317 313 310 306 302 300 297 297 298 300 300 300 299 301 306 311 315 315 316 317 320 322 324 326 329 333 337 341 344 345 346 343 330 334 338 338 340 345 352 354 357 1 2 358 357 7 11 5 2 360 359 359 360 2 5 8 9 9 14 18 25 29 28 22 20 14 350 330 310 296 287 282 278 274 275 276
301 306 313 318 320 321 320 319 319 316 312 309 304 301 298 295 295 295 296 296 295 295 298 303 307 310 310 310 313 317 320 322 324 328 332 334 337 340 340 340 339 326 330 338 339 341 344 347 350 355 0 1 358 356 3 6 360 359 1 1 2 0 360 2 7 11 8 4 359 1 360 351 350 352 343 328 318 307 299 292 288 286 285 286 285
301 310 317 320 322 323 323 323 322 318 313 307 303 300 297 295 294 293 293 292 291 292 295 298 302 304 304 306 310 315 318 322 324 326 329 331 334 336 334 333 333 322 324 337 342 342 344 345 344 350 358 0 357 352 355 5 2 359 1 1 2 0 358 358 1 7 3 356 348 345 339 336 337 335 330 323 318 312 304 298 294 292 293 291 290
305 314 320 322 324 325 327 326 323 319 313 306 301 297 295 294 291 290 289 288 288 288 291 294 297 299 301 304 309 314 318 321 323 325 326 329 332 332 330 326 325 317 315 333 342 344 347 344 339 345 354 358 357 351 346 355 360 353 353 355 358 357 354 350 351 356 352 342 331 328 327 331 330 327 326 322 318 313 307 302 299 296 295 293 292
309 316 320 323 325 327 328 328 324 319 313 304 298 293 291 290 287 286 285 283 283 285 287 291 295 296 299 304 308 313 317 320 322 323 324 327 329 329 326 321 317 309 305 324 338 346 350 348 339 340 348 353 354 350 341 341 345 342 340 343 348 349 348 345 344 344 331 314 302 306 313 315 316 318 320 317 314 309 305 302 300 298 295 293 290
311 316 319 323 327 329 331 329 325 319 312 304 295 290 289 287 283 282 282 280 280 282 286 290 293 295 298 302 305 310 315 317 319 321 322 324 326 326 324 317 310 302 297 315 330 344 351 353 345 340 342 347 349 347 341 337 336 335 334 335 341 343 343 342 341 337 320 303 293 292 297 304 307 311 313 310 309 306 302 300 297 296 293 291 289
311 315 319 325 329 331 332 329 325 318 311 303 294 289 286 283 280 279 278 277 279 282 286 289 291 293 296 299 302 307 311 313 315 318 320 321 323 324 322 314 304 297 291 308 320 335 347 352 350 344 340 338 341 341 336 333 332 331 331 332 337 339 339 338 336 331 319 309 304 300 301 307 308 307 306 303 301 298 295 293 290 289 288 288 287
312 316 320 325 329 331 331 327 323 317 309 301 294 288 284 280 278 276 276 277 280 282 285 286 287 288 291 295 299 304 307 309 312 314 317 318 320 322 320 310 299 292 287 294 308 319 335 345 348 347 343 333 328 329 328 326 327 329 328 330 334 336 337 335 334 328 319 315 311 310 311 310 308 305 302 299 295 291 290 287 285 283 282 283 282
312 314 318 323 328 331 330 326 321 316 308 298 291 284 280 276 275 275 275 277 278 279 281 280 279 282 286 291 296 300 304 307 309 311 313 315 317 319 318 307 293 287 285 286 291 300 314 331 339 342 344 334 319 316 316 317 322 328 326 326 330 332 332 331 331 325 318 315 311 310 312 311 308 307 304 301 296 293 290 288 285 283 282 281 281
307 308 316 321 326 328 327 323 319 315 307 295 286 279 275 272 273 274 275 276 275 275 275 274 275 279 284 289 294 298 302 304 306 309 311 312 313 315 315 303 286 278 281 287 286 284 294 308 322 333 342 337 322 309 304 301 309 323 320 318 324 326 326 326 323 321 317 311 307 307 309 311 311 310 309 307 304 300 296 292 288 285 283 282 281
303 306 314 317 321 323 322 318 314 312 305 292 281 276 272 271 272 274 275 274 274 274 273 273 275 279 285 290 294 297 300 302 304 307 308 308 308 311 311 300 280 268 271 282 286 281 279 289 306 324 336 332 325 312 306 296 289 302 309 309 316 320 320 322 320 316 315 310 306 307 308 309 310 310 310 310 309 307 304 300 295 290 286 283 281
300 304 308 311 316 318 317 313 307 307 301 286 277 274 272 271 272 273 273 272 271 273 274 275 277 281 286 290 293 296 298 301 304 306 306 304 303 304 305 295 277 262 262 273 282 283 277 277 293 310 318 318 317 312 314 309 287 285 304 306 305 309 312 316 320 315 313 311 306 307 307 306 307 307 308 309 309 309 309 307 304 299 293 289 286
294 297 300 305 311 313 314 310 304 304 298 283 274 271 271 272 272 271 269 267 266 269 272 275 277 281 286 289 293 296 298 300 302 305 304 301 299 299 298 291 276 261 259 265 275 282 281 275 281 293 301 304 306 304 309 313 299 284 299 306 296 294 301 306 312 313 311 309 305 305 304 304 304 305 306 307 308 308 308 308 307 305 301 297 293
290 292 295 301 305 307 311 310 306 304 296 283 273 269 270 272 271 270 267 264 264 266 268 271 275 280 284 287 290 295 298 297 299 301 300 299 297 295 293 287 276 262 258 262 268 275 280 278 276 282 289 293 294 294 297 303 303 290 295 303 293 285 290 295 301 306 307 304 301 302 301 301 303 304 305 306 307 308 308 307 306 305 303 299 297
287 289 292 297 300 302 307 308 305 301 293 282 271 267 269 269 269 269 267 266 267 269 267 268 273 278 280 283 289 295 296 294 296 296 296 298 297 293 289 283 273 262 259 261 265 270 275 278 278 277 279 284 285 285 287 288 287 281 285 293 291 285 286 289 292 298 302 300 296 296 296 297 301 305 306 307 308 310 310 309 308 305 302 297 294
286 287 289 293 296 300 304 305 303 298 291 282 269 264 265 265 267 268 268 268 270 271 269 267 270 274 275 279 286 290 289 289 293 293 293 295 295 291 286 280 270 262 261 262 264 267 271 275 276 275 275 277 279 280 279 278 273 270 271 277 284 285 284 286 287 292 297 294 288 287 289 290 296 303 306 309 310 310 311 311 311 308 305 297 290
283 286 288 290 294 298 301 301 299 295 289 280 268 261 261 262 265 267 268 268 269 270 269 268 269 270 271 273 278 280 281 284 288 289 290 292 291 288 283 277 267 263 264 264 265 267 269 272 273 274 275 275 277 278 276 273 269 265 262 264 275 281 281 282 283 289 291 287 281 280 282 283 289 297 304 310 312 312 312 312 311 309 306 298 288
282 285 287 289 292 295 298 297 293 290 286 278 267 260 259 259 261 265 267 267 267 267 268 268 268 269 270 270 273 277 279 281 284 286 288 288 287 285 280 273 267 265 266 266 267 269 270 271 271 272 275 276 277 278 277 273 268 263 257 256 266 272 273 277 282 288 288 282 277 275 277 278 281 288 297 308 313 313 313 313 313 310 305 298 288
282 284 286 289 292 294 294 292 288 284 282 276 268 263 261 260 261 264 267 267 266 266 268 268 269 269 269 270 273 277 279 280 282 284 285 284 283 282 277 272 268 266 265 266 268 270 272 272 273 274 275 278 280 280 278 274 269 264 256 253 258 259 259 270 282 288 285 280 277 272 271 273 277 280 286 298 306 311 313 314 315 312 308 301 292
283 284 287 289 291 292 291 288 285 281 280 276 271 268 264 262 262 265 266 265 267 270 271 270 268 268 268 270 273 276 278 280 281 282 282 282 281 279 275 272 269 267 264 265 267 270 274 275 277 278 278 280 282 280 277 273 268 265 259 253 253 253 255 265 277 284 281 278 277 269 267 268 273 276 280 288 296 305 311 313 314 312 309 304 297
284 286 288 290 290 291 289 288 285 281 280 276 271 268 262 260 262 262 261 263 270 273 271 268 266 265 266 269 272 274 277 278 279 280 279 278 278 276 273 270 268 266 264 264 266 269 273 276 278 280 280 281 282 277 273 270 266 263 259 252 251 256 263 267 272 279 278 276 274 267 264 264 269 276 280 284 287 295 305 310 311 310 308 305 301
286 287 288 290 292 292 291 289 286 283 280 275 270 266 261 260 260 258 259 266 272 271 267 264 261 260 263 266 268 271 274 275 276 276 275 275 273 271 270 268 266 264 264 264 266 268 272 275 277 279 280 280 279 274 269 266 263 261 257 251 251 257 265 268 271 276 274 272 272 265 261 261 267 275 280 283 283 287 298 307 308 306 305 306 305
287 288 291 293 294 294 292 289 286 283 278 273 270 268 264 262 260 258 263 268 269 267 263 260 257 257 260 262 265 268 271 272 272 271 272 271 269 268 268 267 265 263 262 263 264 267 269 272 275 276 275 274 272 269 266 262 260 260 256 251 252 258 265 270 272 271 269 269 268 263 259 259 264 271 276 278 278 283 292 301 305 303 302 306 309
287 289 293 295 296 296 293 287 283 280 274 271 270 270 267 263 260 259 263 265 264 261 258 254 253 255 257 260 262 266 269 271 271 269 269 268 266 266 267 266 264 262 261 261 262 264 267 269 271 271 270 270 266 263 262 261 261 261 256 251 254 261 268 271 269 266 265 266 264 262 259 257 260 266 270 273 275 281 288 295 300 300 299 303 308
286 291 294 295 295 294 289 283 280 276 273 272 273 272 267 262 257 256 258 259 258 257 254 252 251 253 255 259 263 267 269 269 269 268 266 265 265 264 264 263 263 263 261 259 259 262 266 268 269 269 268 267 262 257 256 256 259 260 256 254 258 265 269 268 265 262 262 264 264 263 260 257 260 264 268 273 278 282 286 293 298 299 297 300 304
288 294 298 299 297 293 287 283 279 275 274 275 274 272 267 259 254 251 252 254 257 258 256 253 252 254 257 260 265 268 269 269 268 265 264 264 265 264 263 262 263 264 264 260 259 262 266 269 272 271 269 266 259 254 253 254 256 257 256 256 259 265 267 265 262 260 261 263 265 264 260 257 261 266 269 274 281 284 286 291 295 297 297 298 299
295 299 302 303 301 297 290 286 281 275 275 275 271 270 266 259 253 247 248 256 263 264 263 260 259 258 260 264 268 270 270 270 266 263 262 264 264 263 262 263 263 264 265 263 262 263 265 268 270 271 270 267 259 254 255 256 257 257 256 256 257 259 261 260 259 260 261 262 264 264 259 257 262 268 268 271 279 284 286 290 294 296 294 293 292
297 298 301 301 300 296 289 284 281 277 276 272 264 265 267 263 253 245 251 266 271 274 274 269 264 262 263 267 270 273 274 273 270 267 265 265 263 262 263 264 264 264 265 265 264 263 264 265 266 268 268 266 259 254 254 256 256 254 252 255 257 257 259 258 258 260 261 262 262 260 255 255 264 270 270 272 276 282 286 289 293 294 290 287 286
290 292 296 296 294 291 284 280 276 276 277 271 263 262 267 266 254 248 261 275 276 279 282 276 269 267 269 273 275 278 281 279 276 273 270 267 265 264 264 265 267 267 266 265 264 264 264 264 264 264 264 264 258 250 250 252 252 247 245 251 256 256 258 258 259 260 261 261 259 254 250 254 264 271 274 275 277 281 285 287 289 289 285 283 283
286 290 292 292 290 285 279 276 271 270 271 269 264 261 262 264 259 259 270 277 278 281 286 287 283 280 279 282 284 284 284 284 283 282 278 273 271 270 268 267 267 267 267 266 265 264 265 265 265 263 263 264 257 247 245 248 248 249 249 250 252 254 257 259 259 258 259 258 253 248 250 255 263 269 274 275 276 281 285 285 286 286 283 281 280
286 289 287 286 284 278 274 271 267 265 266 265 262 259 259 261 262 266 271 274 277 281 284 288 287 285 285 287 286 283 285 289 288 287 285 281 279 277 273 269 267 268 269 269 268 267 266 266 265 266 265 263 256 245 241 241 243 248 253 252 249 251 255 256 256 256 256 251 247 248 254 259 263 267 271 271 273 280 283 281 282 283 282 280 277
286 285 284 283 279 277 273 266 262 264 266 266 265 262 260 260 261 265 267 270 275 280 282 281 279 279 280 281 280 279 284 289 289 287 284 281 281 281 278 272 269 270 271 272 272 270 269 269 268 270 269 264 256 244 238 239 240 244 250 250 247 250 253 252 252 254 251 245 245 251 256 259 261 265 267 267 271 276 277 277 278 280 280 278 275
285 282 281 281 279 278 276 269 265 264 266 267 268 267 266 264 263 264 266 269 273 278 281 278 276 276 278 280 278 276 281 289 292 290 286 283 284 281 277 274 272 273 273 274 274 273 277 279 276 272 268 264 256 244 237 238 240 243 247 247 246 249 251 251 250 250 246 243 248 253 255 258 259 262 263 266 270 271 270 271 275 278 278 275 273
283 280 279 280 280 279 277 273 270 267 266 267 268 269 270 269 268 267 268 270 272 275 277 276 274 274 279 283 282 279 281 288 292 292 291 290 290 286 280 278 278 277 276 275 274 275 278 282 280 269 260 260 255 242 237 238 241 244 246 246 245 247 250 252 249 247 243 243 249 252 253 257 259 259 261 264 267 265 264 268 273 276 275 272 269
282 282 282 281 279 275 271 268 265 263 262 263 264 265 267 268 269 270 270 271 272 272 272 272 270 270 273 279 283 283 282 284 287 289 290 290 291 290 286 283 282 281 281 279 277 276 276 280 283 269 254 251 245 236 237 239 240 242 245 244 243 244 247 249 246 243 241 242 246 249 251 258 261 261 261 262 261 259 263 270 274 274 272 267 264
278 279 280 279 275 268 264 261 258 256 256 257 259 260 262 265 266 268 268 268 269 269 269 269 269 268 267 270 275 278 279 281 284 286 287 287 289 289 287 284 282 283 284 282 278 278 278 279 284 279 258 242 232 233 239 239 238 240 243 242 239 239 241 244 244 241 240 242 245 249 252 256 259 261 262 259 258 261 267 272 273 271 268 264 261
274 275 278 278 276 271 266 262 258 255 256 256 257 258 260 263 265 267 268 269 271 273 274 273 272 271 269 267 267 269 273 278 281 283 284 286 288 289 287 283 281 282 283 281 278 277 275 271 273 277 269 245 232 235 243 244 242 240 241 238 230 232 239 242 241 239 241 244 247 250 252 255 257 258 260 260 260 263 266 268 269 268 266 262 259
273 275 278 281 282 280 275 269 266 263 261 261 260 259 259 261 264 265 267 270 272 274 276 277 278 278 277 274 271 269 270 273 276 278 279 281 285 288 287 283 279 278 278 277 275 272 269 268 268 268 269 260 244 239 244 248 245 241 241 236 227 230 238 240 239 239 240 243 246 249 250 253 256 258 261 263 263 261 259 260 263 264 263 259 255
276 278 279 281 282 282 280 275 270 268 266 266 264 263 261 261 263 264 266 268 270 271 274 277 281 283 284 281 278 276 274 272 273 274 274 275 279 284 286 285 280 275 273 273 270 268 269 269 269 267 268 266 249 240 243 246 245 245 242 237 231 231 235 237 238 236 237 243 246 248 250 253 256 258 261 262 261 257 255 256 258 260 261 257 254
281 283 283 282 280 277 277 275 271 270 270 269 269 269 268 266 266 267 269 271 271 272 274 278 282 286 288 286 282 279 278 276 274 273 271 269 273 280 283 284 282 276 273 272 267 265 268 268 267 266 266 267 250 241 242 243 247 249 241 232 229 228 230 232 233 233 238 244 245 247 253 254 253 255 258 258 255 255 256 258 259 259 258 256 254
287 287 285 284 281 276 273 272 271 271 271 272 273 274 272 270 270 270 272 273 274 275 277 280 283 284 286 287 283 279 279 279 275 270 268 265 266 272 278 279 279 276 273 270 265 264 267 269 269 264 261 262 253 243 242 242 241 237 227 222 221 225 230 230 233 241 244 243 245 250 251 248 248 249 251 251 249 253 258 260 260 259 256 255 255
286 284 283 282 280 277 275 273 272 271 271 272 273 274 274 274 273 272 274 275 275 276 279 282 283 282 284 287 287 282 278 277 274 267 264 263 263 266 272 273 272 270 269 267 264 263 266 268 265 262 260 260 253 243 240 235 225 216 215 219 223 229 230 230 237 243 244 245 250 254 249 245 247 246 246 247 247 252 256 256 256 256 255 255 257
Height
5893 5892 5891 5891 5889 5888 5887 5886 5885 5885 5884 5883 5883 5882 5882 5881 5880 5880 5879 5879 5878 5877 5876 5875 5874 5874 5873 5872 5871 5870 5869 5868 5866 5865 5864 5863 5862 5861 5861 5860 5859 5859 5859 5859 5858 5858 5857 5856 5856 5855 5854 5854 5853 5852 5851 5851 5850 5850 5849 5849 5848 5847 5846 5846 5846 5846 5846 5846 5845 5845 5845 5845 5845 5845 5845 5844 5843 5843 5843 5843 5844 5844 5845 5845 5845
5892 5892 5890 5890 5888 5887 5886 5885 5885 5884 5883 5883 5882 5881 5881 5880 5880 5879 5879 5878 5877 5876 5875 5875 5874 5873 5872 5871 5870 5869 5868 5867 5866 5865 5864 5863 5862 5861 5860 5860 5859 5859 5859 5859 5858 5858 5857 5857 5856 5855 5855 5854 5853 5852 5851 5850 5850 5850 5850 5849 5848 5847 5847 5846 5846 5846 5846 5846 5846 5845 5845 5846 5846 5846 5845 5844 5844 5844 5844 5844 5845 5845 5845 5845 5845
5891 5890 5889 5889 5888 5887 5886 5885 5884 5883 5883 5882 5881 5881 5880 5880 5879 5879 5878 5878 5877 5876 5875 5874 5874 5873 5872 5871 5870 5869 5868 5867 5865 5864 5863 5862 5861 5860 5860 5859 5859 5859 5859 5859 5858 5858 5857 5857 5856 5855 5855 5854 5853 5852 5851 5850 5850 5850 5850 5849 5849 5848 5847 5847 5846 5846 5846 5846 5846 5846 5846 5846 5846 5846 5845 5844 5844 5844 5844 5845 5845 5845 5846 5846 5846
5890 5889 5888 5887 5886 5886 5885 5884 5883 5882 5882 5881 5881 5880 5880 5879 5879 5878 5878 5877 5876 5875 5874 5874 5873 5873 5872 5871 5870 5869 5868 5867 5865 5864 5863 5862 5861 5860 5860 5859 5859 5859 5859 5859 5858 5857 5857 5857 5856 5855 5855 5854 5853 5852 5851 5851 5850 5850 5850 5849 5849 5848 5847 5847 5846 5846 5846 5846 5846 5846 5846 5846 5846 5846 5845 5845 5844 5845 5845 5845 5846 5846 5846 5846 5846
5889 5888 5887 5886 5885 5884 5884 5883 5883 5882 5881 5881 5880 5880 5879 5879 5878 5877 5877 5876 5876 5875 5874 5873 5873 5872 5871 5870 5870 5869 5868 5867 5865 5864 5863 5862 5861 5860 5860 5859 5859 5859 5859 5858 5858 5857 5857 5856 5856 5856 5855 5854 5853 5852 5851 5851 5850 5850 5850 5849 5849 5848 5848 5847 5847 5847 5846 5846 5846 5846 5846 5846 5846 5845 5845 5845 5845 5845 5845 5846 5846 5846 5846 5846 5846
5887 5887 5886 5885 5884 5884 5883 5883 5882 5881 5881 5880 5880 5879 5878 5878 5877 5877 5876 5875 5875 5874 5873 5873 5872 5872 5871 5870 5870 5869 5868 5867 5865 5864 5863 5862 5861 5860 5860 5859 5859 5859 5858 5858 5857 5856 5856 5856 5856 5855 5855 5854 5853 5852 5852 5851 5850 5850 5849 5849 5849 5848 5848 5847 5847 5846 5846 5846 5846 5846 5846 5846 5845 5845 5845 5845 5845 5846 5846 5846 5846 5846 5846 5846 5846
5886 5886 5885 5885 5884 5883 5883 5882 5881 5881 5880 5880 5879 5878 5878 5877 5876 5876 5875 5874 5874 5873 5873 5872 5872 5872 5871 5870 5869 5869 5868 5867 5865 5864 5863 5862 5861 5860 5860 5859 5859 5859 5858 5857 5856 5856 5856 5856 5856 5855 5855 5854 5854 5853 5852 5851 5850 5850 5850 5850 5849 5849 5848 5847 5847 5847 5847 5847 5847 5846 5846 5845 5845 5845 5845 5845 5845 5846 5846 5846 5846 5846 5847 5847 5847
5886 5885 5884 5884 5883 5882 5882 5881 5880 5880 5879 5879 5878 5877 5876 5876 5875 5875 5874 5874 5873 5873 5872 5872 5872 5871 5870 5869 5869 5868 5867 5866 5865 5864 5863 5862 5861 5860 5860 5859 5859 5859 5858 5857 5856 5855 5855 5855 5855 5855 5855 5854 5854 5853 5852 5851 5851 5851 5850 5850 5850 5849 5849 5848 5848 5848 5848 5847 5847 5846 5846 5846 5845 5845 5845 5845 5846 5846 5846 5846 5846 5846 5846 5847 5847
5884 5884 5884 5883 5882 5882 5881 5880 5880 5879 5878 5878 5877 5876 5875 5875 5874 5874 5874 5873 5873 5872 5872 5871 5871 5870 5870 5869 5868 5868 5867 5866 5865 5864 5863 5862 5861 5860 5859 5859 5859 5859 5858 5857 5856 5855 5855 5855 5855 5855 5854 5854 5854 5853 5852 5852 5852 5851 5851 5850 5850 5849 5849 5848 5848 5848 5847 5847 5847 5846 5846 5846 5846 5846 5846 5846 5846 5846 5846 5846 5846 5846 5846 5846 5846
5883 5883 5883 5882 5881 5881 5880 5879 5879 5878 5877 5877 5876 5875 5874 5874 5873 5873 5873 5872 5872 5871 5871 5870 5870 5870 5869 5868 5868 5867 5867 5866 5865 5864 5863 5862 5861 5860 5859 5859 5859 5859 5858 5857 5856 5855 5855 5855 5854 5854 5854 5854 5854 5853 5852 5852 5852 5852 5851 5851 5850 5849 5849 5848 5848 5847 5847 5847 5847 5846 5846 5846 5846 5846 5846 5846 5846 5846 5846 5846 5846 5846 5846 5846 5846
5882 5882 5881 5881 5880 5880 5879 5878 5878 5877 5876 5876 5875 5874 5874 5873 5873 5872 5872 5872 5871 5870 5870 5870 5869 5869 5868 5868 5867 5867 5866 5866 5864 5863 5863 5862 5861 5860 5859 5859 5859 5858 5858 5857 5856 5855 5855 5855 5854 5854 5854 5854 5854 5853 5852 5852 5852 5852 5852 5851 5850 5849 5849 5848 5848 5847 5847 5847 5847 5847 5847 5846 5846 5846 5846 5846 5846 5846 5846 5846 5846 5846 5846 5846 5846
5881 5880 5880 5880 5879 5878 5878 5877 5877 5876 5875 5875 5874 5873 5873 5872 5872 5872 5871 5871 5870 5870 5869 5869 5869 5868 5868 5867 5867 5867 5866 5866 5864 5863 5863 5862 5861 5859 5858 5858 5858 5858 5858 5858 5856 5855 5855 5855 5854 5854 5854 5854 5854 5853 5853 5852 5852 5852 5852 5851 5851 5850 5849 5849 5848 5848 5848 5848 5847 5847 5847 5847 5846 5846 5846 5846 5846 5846 5846 5846 5846 5846 5846 5846 5846
5879 5879 5879 5878 5878 5878 5877 5876 5876 5875 5874 5873 5873 5872 5872 5872 5871 5871 5870 5870 5870 5869 5869 5868 5868 5867 5867 5867 5867 5866 5866 5865 5865 5863 5863 5862 5861 5859 5858 5857 5857 5857 5858 5857 5856 5856 5855 5854 5854 5854 5854 5854 5854 5853 5853 5853 5852 5852 5852 5851 5851 5850 5850 5850 5849 5849 5848 5848 5848 5848 5847 5847 5847 5847 5846 5846 5846 5846 5846 5846 5846 5846 5846 5846 5846
5878 5878 5877 5877 5877 5876 5876 5875 5874 5874 5873 5872 5871 5871 5871 5871 5870 5870 5870 5869 5869 5869 5868 5868 5867 5867 5866 5866 5866 5865 5865 5865 5864 5863 5862 5861 5860 5859 5858 5856 5856 5857 5858 5857 5856 5855 5855 5854 5854 5853 5853 5853 5853 5853 5853 5853 5853 5852 5852 5851 5851 5850 5850 5850 5850 5849 5848 5848 5848 5848 5848 5847 5847 5847 5846 5846 5846 5846 5846 5846 5846 5846 5846 5846 5846
5876 5876 5876 5876 5875 5875 5874 5874 5873 5872 5871 5870 5870 5869 5869 5869 5869 5869 5868 5868 5868 5867 5867 5867 5867 5866 5865 5865 5864 5864 5864 5864 5863 5863 5862 5861 5860 5859 5858 5855 5855 5856 5857 5857 5856 5855 5854 5854 5853 5853 5853 5853 5853 5853 5853 5853 5853 5853 5852 5851 5851 5851 5850 5850 5850 5849 5849 5848 5848 5848 5848 5847 5847 5846 5846 5846 5846 5846 5845 5845 5845 5845 5845 5845 5845
5874 5874 5874 5874 5874 5873 5873 5872 5871 5870 5869 5869 5868 5868 5868 5867 5867 5867 5867 5867 5867 5866 5866 5866 5866 5865 5864 5864 5863 5863 5863 5863 5862 5862 5861 5860 5860 5859 5858 5855 5854 5854 5857 5857 5856 5855 5854 5854 5853 5853 5853 5853 5853 5853 5853 5853 5853 5853 5852 5852 5851 5851 5850 5850 5850 5849 5849 5849 5848 5848 5847 5847 5847 5846 5846 5845 5845 5845 5845 5845 5845 5845 5844 5844 5844
5872 5872 5872 5872 5872 5871 5871 5870 5869 5868 5867 5867 5866 5866 5866 5866 5866 5866 5866 5866 5865 5865 5865 5865 5865 5864 5863 5863 5862 5862 5862 5862 5861 5861 5860 5859 5859 5859 5857 5855 5853 5853 5855 5857 5856 5855 5854 5854 5853 5853 5853 5852 5852 5852 5853 5853 5853 5853 5852 5852 5851 5851 5850 5850 5850 5849 5849 5849 5848 5848 5847 5847 5846 5846 5845 5845 5845 5845 5845 5844 5844 5844 5844 5843 5843
5871 5870 5870 5870 5870 5869 5869 5868 5867 5866 5865 5865 5865 5865 5865 5864 5865 5865 5865 5864 5864 5864 5863 5863 5863 5862 5862 5861 5861 5860 5861 5861 5860 5859 5859 5858 5858 5858 5857 5855 5853 5852 5853 5855 5856 5855 5854 5854 5853 5853 5852 5852 5852 5852 5852 5852 5852 5852 5852 5851 5851 5851 5850 5850 5849 5849 5848 5848 5848 5848 5848 5847 5846 5846 5845 5845 5845 5844 5844 5844 5844 5843 5843 5843 5843
5870 5869 5869 5868 5868 5867 5867 5866 5865 5864 5864 5863 5863 5863 5863 5863 5863 5863 5863 5863 5863 5862 5862 5861 5861 5861 5860 5860 5859 5859 5859 5859 5859 5858 5858 5857 5857 5857 5856 5855 5853 5852 5851 5852 5854 5854 5853 5853 5852 5852 5851 5851 5851 5851 5851 5851 5851 5851 5851 5851 5850 5850 5850 5849 5849 5849 5848 5848 5848 5848 5847 5847 5846 5846 5845 5845 5844 5844 5844 5843 5843 5843 5843 5842 5842
5869 5868 5868 5867 5866 5866 5865 5864 5863 5862 5862 5861 5861 5861 5861 5861 5861 5861 5861 5861 5861 5861 5860 5860 5859 5859 5859 5858 5858 5857 5857 5857 5857 5857 5856 5856 5855 5855 5855 5854 5852 5851 5851 5850 5851 5852 5852 5852 5851 5851 5850 5850 5850 5850 5850 5850 5850 5850 5850 5850 5850 5849 5849 5849 5849 5848 5848 5847 5847 5847 5846 5846 5846 5845 5845 5844 5844 5844 5843 5843 5843 5842 5842 5842 5841
5867 5866 5866 5866 5865 5864 5863 5861 5860 5860 5860 5860 5860 5860 5860 5859 5859 5859 5859 5859 5859 5859 5859 5858 5857 5857 5857 5856 5856 5856 5855 5854 5854 5855 5855 5854 5854 5854 5854 5853 5852 5851 5850 5850 5850 5850 5851 5851 5850 5849 5849 5849 5849 5849 5849 5849 5849 5849 5849 5849 5849 5849 5848 5848 5848 5847 5847 5847 5846 5846 5846 5845 5845 5845 5844 5844 5843 5843 5843 5843 5842 5842 5841 5841 5841
5866 5865 5865 5865 5864 5863 5862 5860 5858 5858 5858 5858 5858 5858 5858 5857 5857 5857 5857 5857 5857 5857 5857 5856 5856 5855 5855 5854 5854 5854 5854 5852 5852 5852 5852 5853 5852 5852 5852 5852 5851 5850 5850 5850 5849 5849 5849 5849 5849 5848 5848 5848 5848 5848 5848 5848 5848 5848 5848 5848 5848 5848 5847 5847 5847 5846 5846 5846 5846 5845 5845 5845 5844 5844 5843 5843 5843 5842 5842 5842 5842 5841 5841 5840 5840
5865 5864 5864 5863 5863 5862 5861 5860 5858 5857 5857 5856 5856 5856 5856 5855 5855 5855 5855 5854 5854 5854 5854 5854 5854 5853 5853 5852 5851 5851 5852 5851 5850 5850 5850 5850 5851 5851 5851 5851 5850 5849 5849 5849 5849 5848 5848 5848 5848 5847 5847 5847 5847 5847 5847 5847 5847 5847 5847 5847 5847 5846 5846 5846 5846 5846 5845 5845 5845 5845 5844 5844 5844 5843 5843 5842 5842 5842 5841 5841 5840 5840 5840 5839 5839
5863 5863 5862 5862 5862 5860 5860 5859 5857 5856 5855 5854 5854 5854 5853 5853 5852 5852 5852 5852 5851 5851 5851 5851 5851 5851 5851 5850 5850 5849 5849 5848 5848 5848 5847 5848 5849 5849 5850 5850 5849 5848 5848 5848 5848 5848 5847 5847 5846 5846 5846 5845 5845 5846 5846 5846 5846 5846 5846 5846 5845 5845 5845 5845 5845 5845 5845 5844 5844 5844 5844 5843 5843 5842 5842 5841 5841 5841 5840 5840 5839 5839 5839 5838 5838
5861 5861 5861 5861 5860 5859 5858 5857 5856 5855 5853 5852 5852 5851 5851 5851 5850 5850 5849 5849 5849 5849 5849 5849 5849 5849 5849 5849 5848 5847 5846 5845 5846 5846 5845 5845 5846 5847 5848 5848 5848 5848 5847 5847 5847 5847 5846 5846 5845 5845 5844 5844 5844 5844 5845 5845 5845 5845 5845 5845 5844 5844 5844 5844 5844 5844 5844 5843 5843 5843 5843 5842 5842 5842 5841 5841 5840 5840 5839 5838 5838 5838 5837 5837 5837
5859 5859 5859 5859 5858 5857 5856 5855 5854 5853 5851 5850 5850 5849 5849 5848 5848 5848 5847 5847 5847 5846 5846 5846 5846 5846 5846 5846 5845 5845 5844 5844 5843 5843 5843 5843 5844 5845 5846 5847 5847 5847 5846 5845 5845 5845 5845 5845 5844 5843 5842 5842 5842 5843 5843 5843 5843 5843 5843 5843 5843 5843 5843 5842 5843 5843 5842 5842 5842 5842 5842 5841 5841 5841 5840 5840 5839 5839 5838 5837 5837 5837 5836 5836 5836
5857 5857 5857 5857 5856 5855 5854 5853 5852 5850 5849 5848 5847 5847 5846 5846 5846 5845 5845 5845 5844 5844 5844 5844 5844 5843 5843 5843 5843 5842 5842 5842 5841 5841 5841 5841 5842 5842 5843 5844 5845 5845 5845 5844 5844 5843 5843 5843 5842 5842 5841 5841 5841 5841 5841 5841 5841 5841 5841 5842 5842 5842 5842 5841 5841 5841 5841 5841 5840 5840 5840 5840 5840 5840 5839 5839 5838 5838 5837 5837 5836 5836 5835 5835 5835
5856 5856 5855 5855 5854 5853 5852 5851 5850 5848 5847 5846 5845 5845 5844 5844 5844 5843 5843 5843 5842 5842 5841 5841 5841 5841 5841 5841 5841 5840 5839 5839 5839 5838 5838 5839 5839 5840 5841 5842 5843 5843 5843 5843 5842 5841 5841 5841 5840 5840 5840 5839 5839 5839 5839 5839 5839 5839 5839 5840 5840 5840 5840 5840 5840 5840 5840 5839 5839 5839 5839 5839 5839 5839 5838 5838 5837 5837 5836 5836 5835 5835 5835 5834 5834
5854 5854 5853 5853 5852 5851 5850 5848 5847 5846 5844 5844 5843 5843 5842 5841 5842 5842 5841 5841 5840 5840 5839 5839 5839 5839 5838 5838 5838 5838 5837 5837 5837 5836 5836 5836 5837 5838 5839 5840 5840 5841 5842 5841 5841 5840 5839 5838 5838 5838 5838 5838 5838 5837 5837 5837 5837 5837 5837 5838 5838 5838 5838 5839 5839 5838 5838 5838 5838 5837 5837 5837 5838 5838 5837 5837 5836 5836 5835 5835 5834 5834 5834 5833 5833
5852 5851 5851 5850 5849 5848 5847 5846 5845 5844 5843 5842 5841 5841 5840 5840 5840 5840 5839 5839 5838 5838 5837 5836 5836 5836 5836 5835 5835 5835 5835 5835 5835 5834 5834 5834 5835 5836 5837 5837 5838 5839 5839 5839 5839 5838 5837 5836 5836 5836 5836 5836 5836 5835 5835 5835 5835 5835 5835 5836 5836 5836 5837 5837 5837 5837 5837 5836 5836 5836 5836 5836 5836 5836 5836 5836 5835 5835 5835 5834 5833 5833 5833 5833 5832
5850 5849 5847 5847 5846 5845 5844 5844 5843 5842 5841 5840 5839 5839 5839 5838 5838 5838 5837 5837 5836 5835 5835 5834 5834 5834 5833 5833 5832 5832 5832 5832 5833 5832 5832 5832 5832 5833 5834 5835 5836 5836 5837 5837 5837 5836 5835 5835 5834 5834 5834 5834 5834 5834 5834 5834 5834 5833 5833 5834 5834 5835 5835 5835 5835 5835 5835 5835 5835 5835 5835 5835 5835 5835 5835 5834 5834 5834 5834 5833 5833 5832 5832 5832 5832
5847 5846 5845 5844 5843 5843 5842 5841 5841 5840 5839 5838 5837 5837 5837 5837 5837 5836 5835 5835 5834 5833 5832 5832 5831 5831 5831 5830 5830 5830 5830 5830 5830 5830 5829 5829 5830 5831 5832 5832 5833 5834 5834 5835 5834 5834 5834 5833 5832 5832 5832 5832 5832 5832 5832 5832 5832 5832 5832 5832 5832 5833 5834 5834 5834 5833 5833 5833 5833 5833 5833 5833 5834 5834 5833 5833 5833 5833 5833 5832 5832 5832 5831 5831 5831
5844 5843 5842 5842 5841 5841 5841 5840 5839 5838 5837 5836 5835 5835 5835 5835 5834 5834 5833 5833 5831 5831 5830 5830 5829 5829 5828 5828 5828 5828 5828 5828 5828 5828 5827 5827 5827 5828 5829 5830 5830 5831 5832 5832 5832 5832 5832 5831 5831 5830 5830 5830 5831 5830 5830 5831 5831 5830 5830 5830 5831 5831 5832 5832 5832 5832 5832 5832 5831 5831 5832 5832 5832 5832 5832 5832 5832 5832 5832 5831 5831 5831 5831 5830 5830
5841 5840 5840 5840 5840 5839 5839 5838 5838 5836 5835 5834 5834 5833 5833 5832 5832 5832 5831 5831 5830 5829 5828 5828 5827 5827 5826 5826 5826 5826 5826 5826 5826 5826 5825 5824 5825 5826 5827 5827 5828 5828 5829 5830 5830 5829 5829 5829 5829 5828 5828 5828 5828 5828 5828 5829 5829 5829 5829 5829 5829 5830 5831 5831 5831 5831 5831 5831 5830 5830 5830 5830 5831 5831 5831 5831 5831 5831 5831 5830 5830 5830 5829 5829 5829
5838 5839 5839 5839 5839 5838 5838 5837 5836 5835 5834 5833 5832 5831 5831 5830 5830 5830 5829 5829 5828 5828 5827 5826 5826 5825 5825 5825 5825 5824 5824 5824 5824 5824 5823 5823 5823 5824 5824 5825 5825 5825 5826 5827 5827 5827 5827 5827 5826 5825 5825 5826 5826 5826 5826 5827 5827 5827 5827 5827 5828 5828 5829 5829 5829 5829 5829 5829 5829 5829 5829 5829 5829 5830 5830 5830 5830 5830 5829 5829 5829 5828 5828 5828 5828
5836 5837 5838 5838 5838 5838 5837 5836 5835 5834 5832 5832 5831 5831 5830 5829 5829 5828 5828 5828 5828 5827 5826 5825 5825 5824 5824 5824 5824 5823 5822 5822 5822 5822 5822 5822 5822 5821 5821 5822 5822 5823 5823 5824 5824 5824 5824 5824 5824 5823 5823 5823 5824 5824 5824 5825 5825 5825 5825 5826 5826 5827 5827 5827 5827 5827 5827 5827 5827 5827 5828 5828 5828 5829 5829 5829 5829 5828 5828 5828 5827 5827 5827 5827 5827
5835 5836 5837 5836 5836 5837 5836 5835 5834 5833 5832 5831 5830 5830 5829 5828 5827 5827 5827 5827 5827 5826 5825 5824 5823 5822 5822 5822 5822 5822 5821 5821 5820 5820 5820 5821 5820 5819 5819 5819 5819 5820 5820 5821 5821 5821 5821 5822 5822 5821 5821 5821 5822 5822 5822 5822 5823 5823 5824 5824 5824 5824 5825 5825 5825 5825 5825 5825 5825 5825 5826 5827 5827 5827 5828 5828 5828 5827 5827 5827 5826 5826 5826 5826 5826
5833 5834 5835 5835 5834 5834 5834 5833 5833 5832 5831 5830 5830 5830 5829 5828 5827 5827 5827 5827 5826 5825 5824 5823 5822 5821 5821 5821 5821 5821 5820 5819 5819 5819 5819 5819 5818 5817 5817 5817 5817 5818 5818 5818 5818 5819 5819 5819 5819 5819 5819 5819 5819 5820 5820 5820 5820 5821 5821 5822 5822 5822 5823 5823 5823 5824 5824 5824 5824 5824 5824 5825 5825 5826 5826 5826 5826 5826 5826 5825 5825 5825 5825 5825 5825
5831 5832 5833 5833 5832 5832 5832 5832 5832 5831 5830 5829 5829 5829 5828 5827 5827 5826 5826 5826 5825 5825 5824 5823 5822 5820 5820 5821 5821 5820 5820 5819 5819 5819 5818 5817 5816 5816 5815 5815 5815 5815 5815 5815 5815 5816 5816 5816 5816 5816 5816 5816 5817 5817 5817 5818 5818 5819 5819 5820 5820 5820 5821 5821 5821 5822 5822 5822 5822 5823 5823 5823 5824 5824 5824 5824 5825 5825 5824 5824 5823 5823 5823 5823 5823
5830 5831 5832 5831 5831 5830 5830 5830 5829 5829 5828 5827 5827 5827 5826 5826 5825 5825 5824 5824 5823 5823 5823 5823 5821 5819 5818 5820 5820 5819 5818 5818 5817 5817 5816 5815 5815 5815 5814 5813 5813 5812 5812 5812 5812 5813 5813 5813 5813 5813 5813 5813 5814 5814 5814 5815 5816 5817 5817 5817 5817 5818 5818 5819 5819 5820 5820 5820 5821 5821 5821 5822 5822 5822 5822 5823 5823 5823 5823 5823 5822 5822 5822 5822 5822
5829 5829 5829 5830 5829 5829 5828 5828 5827 5826 5826 5825 5825 5824 5824 5824 5823 5823 5822 5822 5821 5821 5821 5821 5819 5816 5815 5817 5818 5817 5816 5816 5815 5815 5814 5813 5813 5813 5812 5811 5811 5810 5810 5810 5810 5810 5810 5810 5810 5810 5810 5810 5811 5811 5812 5813 5814 5815 5815 5815 5815 5816 5816 5817 5817 5818 5818 5819 5819 5819 5820 5820 5820 5821 5821 5821 5821 5821 5821 5821 5821 5821 5821 5821 5821
5827 5827 5827 5828 5827 5827 5826 5826 5826 5825 5824 5823 5823 5823 5822 5822 5822 5821 5821 5820 5820 5819 5819 5819 5818 5815 5813 5814 5815 5815 5814 5814 5813 5813 5812 5811 5811 5811 5810 5810 5810 5809 5808 5808 5807 5807 5807 5807 5806 5806 5806 5807 5808 5809 5809 5811 5812 5812 5813 5813 5814 5814 5814 5815 5816 5816 5817 5817 5817 5817 5818 5819 5819 5819 5819 5819 5819 5820 5820 5820 5820 5819 5819 5820 5820
5825 5825 5825 5826 5826 5825 5825 5824 5824 5823 5822 5822 5821 5821 5821 5820 5820 5820 5819 5818 5818 5818 5817 5816 5815 5814 5812 5812 5812 5814 5813 5812 5811 5811 5811 5810 5810 5809 5808 5808 5809 5807 5807 5806 5806 5805 5805 5804 5803 5803 5803 5804 5805 5806 5807 5808 5809 5810 5811 5811 5812 5812 5813 5814 5814 5814 5815 5815 5815 5816 5817 5817 5817 5817 5817 5818 5818 5818 5818 5818 5818 5818 5818 5818 5819
5822 5822 5823 5823 5824 5823 5823 5822 5821 5820 5820 5820 5819 5819 5818 5818 5818 5818 5817 5816 5815 5815 5814 5813 5812 5812 5811 5810 5809 5811 5811 5810 5809 5809 5809 5809 5809 5808 5807 5807 5807 5806 5805 5805 5804 5803 5802 5802 5801 5800 5800 5801 5802 5804 5805 5806 5807 5808 5808 5808 5809 5809 5811 5812 5812 5813 5813 5813 5813 5814 5815 5816 5815 5816 5816 5816 5816 5817 5816 5816 5817 5817 5817 5817 5817
5821 5820 5820 5820 5821 5821 5820 5819 5819 5818 5818 5817 5817 5817 5816 5816 5816 5815 5815 5814 5812 5812 5811 5811 5810 5809 5808 5808 5807 5807 5808 5808 5807 5807 5806 5806 5807 5807 5806 5806 5805 5804 5804 5803 5802 5801 5801 5800 5799 5798 5797 5798 5800 5801 5802 5804 5805 5805 5805 5805 5806 5807 5808 5810 5810 5811 5811 5811 5812 5813 5814 5814 5814 5814 5814 5815 5815 5815 5815 5815 5815 5815 5815 5815 5816
5819 5819 5818 5818 5818 5818 5817 5817 5816 5816 5816 5815 5815 5815 5814 5814 5814 5813 5812 5811 5810 5809 5808 5807 5807 5806 5805 5804 5804 5803 5804 5805 5805 5804 5803 5803 5803 5804 5804 5804 5803 5802 5802 5802 5801 5801 5800 5799 5798 5796 5796 5797 5797 5799 5800 5801 5802 5803 5802 5802 5803 5805 5806 5807 5808 5809 5809 5809 5810 5811 5812 5813 5812 5812 5813 5813 5813 5813 5813 5813 5813 5813 5814 5814 5814
5817 5817 5816 5816 5815 5815 5815 5815 5815 5814 5814 5813 5813 5813 5812 5812 5812 5811 5810 5809 5808 5807 5806 5804 5803 5803 5802 5801 5800 5800 5801 5802 5802 5801 5800 5800 5800 5800 5801 5801 5800 5800 5799 5799 5800 5800 5799 5798 5796 5795 5795 5796 5796 5797 5798 5798 5799 5800 5800 5800 5801 5803 5805 5805 5806 5807 5807 5807 5808 5809 5810 5810 5810 5810 5811 5811 5811 5811 5811 5811 5811 5812 5812 5813 5813
5815 5815 5814 5814 5813 5813 5812 5813 5812 5812 5812 5811 5811 5810 5810 5810 5809 5809 5808 5807 5806 5805 5804 5803 5801 5800 5799 5798 5797 5798 5798 5798 5798 5797 5796 5796 5796 5797 5797 5797 5797 5797 5797 5797 5798 5798 5797 5796 5795 5794 5794 5794 5794 5794 5795 5796 5796 5797 5798 5799 5801 5802 5802 5803 5804 5804 5805 5806 5806 5806 5807 5808 5809 5808 5809 5809 5809 5810 5809 5809 5810 5810 5811 5811 5811
5812 5812 5811 5811 5811 5810 5810 5810 5810 5809 5809 5808 5808 5808 5807 5807 5807 5806 5805 5804 5803 5803 5802 5801 5799 5797 5795 5794 5794 5794 5795 5795 5794 5794 5793 5793 5793 5793 5793 5793 5793 5794 5794 5794 5795 5796 5796 5795 5794 5793 5792 5792 5792 5793 5793 5794 5794 5795 5796 5798 5799 5799 5800 5801 5801 5801 5802 5803 5804 5804 5806 5806 5807 5807 5806 5807 5807 5807 5808 5808 5808 5809 5809 5809 5810
5809 5808 5808 5808 5808 5808 5807 5807 5807 5806 5806 5806 5805 5805 5805 5804 5804 5803 5803 5802 5801 5800 5799 5798 5796 5794 5792 5791 5791 5791 5791 5791 5791 5791 5791 5790 5789 5790 5790 5790 5790 5791 5791 5791 5792 5793 5793 5793 5792 5791 5791 5791 5791 5791 5791 5792 5793 5793 5794 5796 5797 5798 5799 5799 5799 5799 5800 5801 5801 5802 5804 5804 5804 5804 5804 5804 5805 5805 5806 5806 5806 5807 5807 5807 5808
5806 5806 5805 5805 5805 5805 5804 5804 5804 5804 5804 5803 5803 5802 5801 5801 5801 5800 5800 5799 5798 5797 5796 5795 5793 5791 5789 5788 5788 5788 5787 5786 5786 5787 5787 5786 5787 5788 5788 5787 5787 5788 5788 5788 5789 5790 5790 5790 5789 5789 5789 5789 5789 5790 5790 5790 5791 5792 5793 5794 5795 5796 5797 5798 5798 5798 5800 5800 5800 5801 5801 5802 5802 5802 5802 5802 5803 5804 5804 5804 5804 5805 5805 5805 5806